Marshalltown, IA

4:23 AM CDT on June 27, 2017 (GMT -0500)
Marshalltown Municipal

Weather History for KMIW - March, 2011

Change the Weather History Date:

Saturday, March 12, 2011

  Actual Average Record
Temperature  
Mean Temperature 31 °F 34 °F  
Max Temperature 39 °F 44 °F 64 °F (2015)
Min Temperature 22 °F 25 °F -6 °F (1998)
Degree Days  
Heating Degree Days 34 31  
Month to date heating degree days 405 402  
Since 1 July heating degree days 5714 5805  
Cooling Degree Days 0 0  
Month to date cooling degree days 0 0  
Year to date cooling degree days 0 0  
Moisture  
Dew Point 24 °F    
Average Humidity 79    
Maximum Humidity 88    
Minimum Humidity 69    
Precipitation  
Precipitation 0.00 in 0.06 in 0.20 in (2006)
Month to date precipitation 0.28 0.60  
Year to date precipitation 0.57  
Sea Level Pressure  
Sea Level Pressure 30.06 in    
Wind  
Wind Speed 22 mph (NW)    
Max Wind Speed 37 mph    
Max Gust Speed 47 mph    
Visibility 10 miles    
Events      
T = Trace of Precipitation, MM = Missing Value Source: NWS Daily Summary

Daily Weather History Graph

Daily Weather History Graph

Search for Another Location

Airport or City:

Trip Planner

Search our weather history database for the weather conditions in past years. The results will help you decide how hot, cold, wet, or windy it might be!

Date:

Astronomy

Mar. 12, 2011 Rise Set
Actual Time 6:29 AM CST 6:14 PM CST
Civil Twilight 6:01 AM CST 6:42 PM CST
Nautical Twilight 5:28 AM CST 7:14 PM CST
Astronomical Twilight 4:56 AM CST 7:47 PM CST
Moon 10:26 AM CST (3/12) 1:13 AM CST (3/12)
Length of Visible Light 12h 41m
Length of Day
11h 45m
Waxing Crescent, 48% of the Moon is Illuminated
Mar 12
Waxing Crescent
Mar 12
First Quarter
Mar 19
Full
Mar 26
Last Quarter
Apr 3
New

Hourly Weather History & Observations

Time (CST) Temp. Windchill Dew Point Humidity Pressure Visibility Wind Dir Wind Speed Gust Speed Precip Events Conditions
12:53 AM 37.0 °F 25.9 °F 30.0 °F 76% 29.83 in 10.0 mi WNW 23.0 mph 31.1 mph N/A   Clear
1:53 AM 34.0 °F 22.7 °F 28.9 °F 82% 29.83 in 10.0 mi WNW 19.6 mph 29.9 mph N/A   Partly Cloudy
2:06 AM 35.6 °F 24.8 °F 28.4 °F 75% 29.82 in 10.0 mi West 19.6 mph 28.8 mph N/A   Mostly Cloudy
2:53 AM 35.1 °F 22.7 °F 28.9 °F 78% 29.84 in 10.0 mi West 25.3 mph 32.2 mph N/A   Overcast
3:53 AM 34.0 °F 21.0 °F 28.0 °F 79% 29.86 in 10.0 mi WNW 26.5 mph 41.4 mph N/A   Overcast
4:53 AM 33.1 °F 18.2 °F 25.0 °F 72% 29.88 in 10.0 mi WNW 34.5 mph 47.2 mph N/A   Overcast
5:53 AM 32.0 °F 18.9 °F 25.0 °F 75% 29.91 in 10.0 mi WNW 24.2 mph 33.4 mph N/A   Scattered Clouds
6:53 AM 30.0 °F 15.4 °F 24.1 °F 79% 29.94 in 10.0 mi WNW 27.6 mph 35.7 mph N/A   Partly Cloudy
8:53 AM 28.9 °F 14.8 °F 23.0 °F 78% 30.00 in 10.0 mi NW 24.2 mph 33.4 mph N/A   Overcast
9:53 AM 28.9 °F 15.4 °F 23.0 °F 78% 30.04 in 10.0 mi WNW 21.9 mph 32.2 mph N/A   Overcast
10:53 AM 30.0 °F 16.3 °F 23.0 °F 75% 30.06 in 10.0 mi WNW 24.2 mph 32.2 mph N/A   Overcast
11:53 AM 32.0 °F 19.5 °F 24.1 °F 73% 30.08 in 10.0 mi NW 21.9 mph 31.1 mph N/A   Overcast
12:53 PM 33.1 °F 20.9 °F 26.1 °F 75% 30.08 in 10.0 mi WNW 21.9 mph 28.8 mph N/A   Overcast
2:53 PM 34.0 °F 22.1 °F 27.0 °F 75% 30.09 in 10.0 mi NW 21.9 mph - N/A   Mostly Cloudy
3:53 PM 33.1 °F 20.9 °F 25.0 °F 72% 30.12 in 10.0 mi NW 21.9 mph - N/A   Mostly Cloudy
4:53 PM 30.9 °F 19.1 °F 24.1 °F 76% 30.15 in 10.0 mi NW 18.4 mph 27.6 mph N/A   Overcast
5:53 PM 30.0 °F 18.3 °F 23.0 °F 75% 30.17 in 10.0 mi NW 17.3 mph - N/A   Overcast
6:53 PM 28.9 °F 17.7 °F 21.9 °F 75% 30.19 in 10.0 mi NW 15.0 mph - N/A   Overcast
7:53 PM 28.0 °F 15.3 °F 21.9 °F 78% 30.22 in 10.0 mi NW 18.4 mph - N/A   Overcast
8:53 PM 27.0 °F 14.7 °F 21.0 °F 78% 30.25 in 10.0 mi NNW 16.1 mph - N/A   Overcast
9:46 PM 26.6 °F 15.2 °F 21.2 °F 80% 30.22 in 10.0 mi NNW 13.8 mph - N/A   Overcast
9:53 PM 25.0 °F 12.6 °F 21.0 °F 85% 30.27 in 10.0 mi NNW 15.0 mph - N/A   Overcast
10:53 PM 24.1 °F 11.0 °F 19.0 °F 81% 30.29 in 10.0 mi NNW 16.1 mph - N/A   Overcast
11:53 PM 21.9 °F 9.2 °F 18.0 °F 85% 30.30 in 10.0 mi NW 13.8 mph - N/A   Overcast